[[{"header":{"parameterUnit":"m.s-1","parameterCategory":1,"la1":30.2991,"la2":30.254,"lo1":-89.0895,"lo2":-89.0444,"dy":0.0017,"dx":0.0017,"nx":28,"ny":28,"refTime":"2023-08-20T03:00:00:Z","depth":0,"parameterNumber":2,"parameterNumberName":"U-component_of_WINDS"},"data":[0,0,0,0,0,0,0,0,0,0,0,0,0,0,0,0,0,0,0,0,0,0,0,0,0,0,0,0,0,0,0,0,0,0,0,0,0,0,0,0,0,0,0,0,0,0,0,0,0,0,0,0,0,0,0,0,0,0,-0.3824,-0.3824,0,-0.3823,-0.3823,-0.3823,-0.3845,-0.3846,-0.3847,-0.3847,-0.3841,-0.384,-0.384,0,0,0,0,0,0,0,0,0,0,0,0,0,-0.3845,-0.3844,-0.3824,-0.3824,-0.3824,-0.3823,-0.3823,-0.3823,-0.3845,-0.3846,-0.3847,-0.3847,-0.3841,-0.3841,-0.384,0,0,0,0,0,0,0,0,0,0,0,0,0,-0.3838,-0.3844,-0.3824,-0.3836,-0.3837,-0.3823,-0.3823,-0.3823,-0.3845,-0.3846,-0.3847,-0.3848,-0.3842,-0.3841,-0.384,-0.3814,0,0,-0.3836,-0.3836,0,0,0,0,0,0,0,0,-0.3839,-0.3838,-0.3834,-0.3835,-0.3836,-0.3835,-0.3828,-0.3819,-0.3845,-0.3842,-0.3847,-0.3848,-0.3838,-0.3837,-0.3835,-0.3813,-0.3813,-0.3836,-0.3835,-0.3835,-0.3834,0,0,0,0,0,0,0,-0.3839,-0.3838,-0.3824,-0.3834,-0.3835,-0.384,-0.384,-0.3826,-0.3834,-0.3842,-0.3844,-0.3843,-0.3839,-0.3836,-0.3835,-0.3813,-0.3836,-0.3835,-0.3834,-0.3834,-0.3771,-0.377,0,0,0,0,0,0,-0.3839,-0.3838,-0.3824,-0.3824,-0.384,-0.3839,-0.3839,-0.3834,-0.3835,-0.3836,-0.3843,-0.3844,-0.3837,-0.3836,-0.3835,-0.3805,-0.3835,-0.3834,-0.3833,-0.3772,-0.3771,-0.3769,0,0,0,0,0,0,-0.3839,-0.3837,-0.3824,-0.3831,-0.383,-0.3837,-0.3832,-0.3834,-0.3831,-0.3835,-0.3836,-0.3838,-0.3838,-0.3836,-0.3819,-0.3805,-0.3833,-0.3832,-0.3773,-0.3771,-0.377,-0.3744,0,0,0,0,0,0,-0.3839,-0.3837,-0.3828,-0.3831,-0.383,-0.3809,-0.3831,-0.3833,-0.3829,-0.3832,-0.3831,-0.3832,-0.3839,-0.3821,-0.3818,-0.3804,-0.3831,-0.3774,-0.3772,-0.377,-0.3747,-0.3742,-0.3739,0,0,0,0,0,-0.384,-0.382,-0.3827,-0.3825,-0.3818,-0.3808,-0.3807,-0.3816,-0.3828,-0.3819,-0.3822,-0.3832,-0.3807,-0.3819,-0.3816,-0.3801,-0.3775,-0.3773,-0.3771,-0.3748,-0.3743,-0.3739,0,0,0,0,0,0,-0.3813,-0.382,-0.3829,-0.3809,-0.3808,-0.3812,-0.38,-0.381,-0.3804,-0.3807,-0.3817,-0.3817,-0.3798,-0.3798,-0.3811,-0.3777,-0.3793,-0.379,-0.3777,-0.3772,-0.3768,-0.3768,-0.383,0,0,0,0,0,-0.3805,-0.3797,-0.3804,-0.3785,-0.3785,-0.3793,-0.3788,-0.3796,-0.3794,-0.3794,-0.3795,-0.3792,-0.3784,-0.3778,-0.3771,-0.3747,-0.3747,-0.3736,-0.3732,-0.3728,-0.3725,-0.3713,-0.3708,-0.3762,-0.3762,-0.3762,0,0,-0.3788,-0.3791,-0.3785,-0.378,-0.378,-0.3771,-0.3792,-0.3781,-0.3774,-0.3791,-0.3776,-0.3777,-0.3775,-0.3754,-0.3745,-0.3754,-0.3711,-0.3725,-0.3723,-0.3722,-0.371,-0.3705,-0.3701,-0.3761,-0.3761,-0.3761,0,0,-0.3752,-0.3754,-0.3739,-0.3739,-0.374,-0.3745,-0.3742,-0.3745,-0.3747,-0.3732,-0.3745,-0.3736,-0.3721,-0.3719,-0.3717,-0.3682,-0.3691,-0.3679,-0.3657,-0.3646,-0.3641,-0.3638,-0.3625,-0.3621,-0.3676,-0.3676,-0.3676,0,-0.373,-0.3718,-0.373,-0.3719,-0.3716,-0.3734,-0.3719,-0.3718,-0.3715,-0.3712,-0.3722,-0.3705,-0.3704,-0.3684,-0.3676,-0.3673,-0.3669,-0.3678,-0.3641,-0.3638,-0.3634,-0.3622,-0.3618,-0.3674,-0.3675,-0.3675,-0.3675,0,-0.3691,-0.3683,-0.3671,-0.367,-0.3666,-0.3653,-0.3662,-0.3656,-0.3664,-0.3669,-0.3653,-0.3654,-0.3647,-0.3643,-0.3649,-0.3623,-0.3629,-0.364,-0.3656,-0.3627,-0.3617,-0.3612,-0.3672,-0.3673,-0.3673,-0.3674,0,0,-0.3637,-0.3644,-0.364,-0.364,-0.3642,-0.3635,-0.3623,-0.3618,-0.3613,-0.3611,-0.36,-0.3588,-0.3599,-0.3595,-0.3602,-0.3592,-0.3565,-0.3604,-0.3604,-0.3597,-0.3536,-0.3528,-0.3522,-0.3571,-0.3571,-0.357,-0.3536,0,-0.3603,-0.3583,-0.3594,-0.3572,-0.3565,-0.3581,-0.3571,-0.3571,-0.3575,-0.3568,-0.3572,-0.3563,-0.3578,-0.3576,-0.3567,-0.357,-0.3552,-0.3573,-0.3561,-0.356,-0.3561,-0.3517,-0.3507,-0.3475,-0.3532,-0.3531,-0.3531,0,-0.3559,-0.3557,-0.3535,-0.354,-0.3537,-0.3527,-0.3524,-0.3518,-0.3518,-0.3521,-0.3519,-0.3528,-0.3516,-0.3533,-0.3516,-0.353,-0.3526,-0.3527,-0.3526,-0.3524,-0.3543,-0.3514,-0.3465,-0.3461,-0.3524,-0.3525,-0.3525,0,-0.3522,-0.3513,-0.3499,-0.3499,-0.3504,-0.3497,-0.3499,-0.35,-0.3497,-0.3493,-0.3491,-0.3486,-0.3483,-0.3479,-0.3486,-0.3498,-0.3468,-0.3486,-0.347,-0.347,-0.3462,-0.3463,-0.3412,-0.346,-0.3461,-0.3461,-0.3461,0,-0.3482,-0.3468,-0.3483,-0.3474,-0.3459,-0.3472,-0.3456,-0.3459,-0.3461,-0.3452,-0.3466,-0.3458,-0.3469,-0.3462,-0.3468,-0.3453,-0.3451,-0.3453,-0.3455,-0.3452,-0.3452,-0.3449,-0.3451,-0.3459,-0.346,-0.346,-0.346,0,-0.3437,-0.3447,-0.3433,-0.344,-0.3441,-0.3429,-0.3435,-0.3427,-0.3433,-0.3422,-0.342,-0.3428,-0.3421,-0.3429,-0.3421,-0.3425,-0.3405,-0.341,-0.3405,-0.3406,-0.339,-0.3391,-0.3336,-0.3329,-0.3382,-0.3381,-0.3381,0,-0.3411,-0.34,-0.3407,-0.3403,-0.3404,-0.3398,-0.3395,-0.3407,-0.3403,-0.3404,-0.3395,-0.3389,-0.3385,-0.3372,-0.3376,-0.3371,-0.3375,-0.3356,-0.3374,-0.3372,-0.3375,-0.3375,-0.3374,-0.3352,-0.3352,-0.3351,-0.3351,0,-0.3362,-0.3368,-0.3364,-0.3362,-0.3359,-0.3357,-0.3356,-0.3352,-0.3365,-0.336,-0.3353,-0.335,-0.3343,-0.3337,-0.3333,-0.3333,-0.3344,-0.3345,-0.3341,-0.3338,-0.3335,-0.3336,-0.3395,-0.3346,-0.3347,-0.3347,-0.3347,-0.3347,-0.3326,-0.3318,-0.3322,-0.3317,-0.3318,-0.3318,-0.3311,-0.3316,-0.3311,-0.3307,-0.3315,-0.3306,-0.3307,-0.3303,-0.3303,-0.3296,-0.3304,-0.3298,-0.3296,-0.3294,-0.3292,-0.3337,-0.3295,-0.3295,-0.3295,-0.3295,-0.3295,0,-0.3279,-0.3282,-0.3278,-0.3277,-0.3273,-0.3286,-0.3286,-0.3281,-0.3274,-0.3275,-0.3271,-0.3263,-0.3257,-0.3262,-0.3257,-0.3251,-0.3255,-0.3249,-0.3249,-0.3249,-0.3285,-0.3289,-0.3245,-0.3245,-0.3245,-0.3245,-0.3245,-0.3245,-0.3253,-0.3241,-0.3247,-0.3235,-0.3239,-0.3231,-0.323,-0.323,-0.3231,-0.3222,-0.3218,-0.3222,-0.3224,-0.322,-0.3215,-0.3216,-0.3214,-0.3205,-0.3208,-0.3242,-0.3247,-0.3251,-0.3255,-0.3205,-0.3205,-0.3173,-0.3173,-0.3173]},{"header":{"parameterUnit":"m.s-1","parameterCategory":1,"la1":30.2991,"la2":30.254,"lo1":-89.0895,"lo2":-89.0444,"dy":0.0017,"dx":0.0017,"nx":28,"ny":28,"refTime":"2023-08-20T03:00:00:Z","depth":0,"parameterNumber":3,"parameterNumberName":"V-component_of_WINDS"},"data":[0,0,0,0,0,0,0,0,0,0,0,0,0,0,0,0,0,0,0,0,0,0,0,0,0,0,0,0,0,0,0,0,0,0,0,0,0,0,0,0,0,0,0,0,0,0,0,0,0,0,0,0,0,0,0,0,0,0,2.8335,2.8335,0,2.8325,2.8325,2.8325,2.8281,2.828,2.8279,2.8278,2.8268,2.8268,2.8269,0,0,0,0,0,0,0,0,0,0,0,0,0,2.8315,2.8315,2.8335,2.8335,2.8335,2.8325,2.8325,2.8325,2.8281,2.828,2.8278,2.8277,2.8268,2.8268,2.8269,0,0,0,0,0,0,0,0,0,0,0,0,0,2.8316,2.8315,2.8335,2.8311,2.8309,2.8325,2.8325,2.8325,2.8281,2.8279,2.8278,2.8276,2.8267,2.8268,2.8269,2.8308,0,0,2.8273,2.8273,0,0,0,0,0,0,0,0,2.8316,2.8317,2.8315,2.8313,2.831,2.8303,2.8315,2.8319,2.8281,2.8292,2.8277,2.8276,2.8281,2.828,2.8282,2.8307,2.8307,2.8273,2.8273,2.8274,2.8274,0,0,0,0,0,0,0,2.8316,2.8317,2.8331,2.8315,2.8312,2.8301,2.83,2.8315,2.8295,2.8291,2.8287,2.8287,2.8279,2.8281,2.8282,2.8307,2.8273,2.8274,2.8274,2.8275,2.8363,2.8364,0,0,0,0,0,0,2.8319,2.8317,2.8331,2.8331,2.831,2.8303,2.8301,2.8307,2.8295,2.8291,2.8288,2.8285,2.828,2.828,2.8281,2.8325,2.8274,2.8275,2.8275,2.8361,2.8363,2.8365,0,0,0,0,0,0,2.8319,2.8321,2.8332,2.8323,2.8324,2.8305,2.8311,2.8307,2.8309,2.8293,2.8289,2.8294,2.8279,2.828,2.8301,2.8324,2.8275,2.8276,2.8359,2.8362,2.8364,2.8412,0,0,0,0,0,0,2.8319,2.8321,2.8335,2.8324,2.8324,2.8352,2.8313,2.8308,2.8311,2.8307,2.8297,2.8294,2.8278,2.83,2.8302,2.8324,2.8277,2.8357,2.836,2.8363,2.8409,2.8416,2.8423,0,0,0,0,0,2.8318,2.8349,2.8336,2.8338,2.8341,2.8353,2.8354,2.8334,2.8313,2.8327,2.8317,2.8295,2.8321,2.8303,2.8305,2.8327,2.8355,2.8359,2.8363,2.8405,2.8415,2.8423,0,0,0,0,0,0,2.8363,2.8347,2.8332,2.8361,2.8359,2.8346,2.8363,2.8344,2.8348,2.8344,2.8319,2.8317,2.8343,2.8338,2.8317,2.8364,2.8335,2.8339,2.8366,2.8375,2.8382,2.8382,2.8278,0,0,0,0,0,2.8376,2.8387,2.8373,2.8399,2.8399,2.8381,2.8386,2.8371,2.8368,2.8367,2.8358,2.8356,2.8364,2.8369,2.8376,2.8408,2.8406,2.8425,2.8432,2.8438,2.8442,2.8459,2.8467,2.8377,2.8377,2.8377,0,0,2.8403,2.8396,2.8404,2.8408,2.8404,2.8416,2.8381,2.8395,2.8403,2.8369,2.8388,2.8382,2.8379,2.8406,2.8418,2.8402,2.8466,2.8443,2.8448,2.8448,2.8463,2.8472,2.8479,2.838,2.8379,2.8379,0,0,2.8458,2.8454,2.8476,2.8474,2.8469,2.8458,2.8463,2.8454,2.8448,2.8468,2.8442,2.8453,2.8467,2.8465,2.8466,2.8523,2.8502,2.8526,2.8562,2.8579,2.8586,2.8592,2.8611,2.8619,2.853,2.853,2.853,0,2.8492,2.8509,2.8489,2.8505,2.8507,2.8478,2.8499,2.8498,2.8496,2.8499,2.8482,2.8499,2.8495,2.8521,2.8535,2.8538,2.8543,2.8526,2.8586,2.8592,2.8598,2.8616,2.8623,2.8533,2.8532,2.8532,2.8532,0,2.8551,2.8563,2.8581,2.858,2.8585,2.8604,2.8587,2.8594,2.858,2.857,2.8591,2.8585,2.8589,2.8595,2.8581,2.862,2.861,2.8591,2.856,2.8609,2.8626,2.8633,2.8537,2.8536,2.8535,2.8534,0,0,2.8631,2.8621,2.8628,2.8627,2.8622,2.8631,2.8649,2.8654,2.866,2.8661,2.8675,2.8688,2.867,2.8671,2.8657,2.8672,2.8717,2.865,2.865,2.8662,2.8759,2.8773,2.8781,2.8704,2.8706,2.8707,2.8759,0,2.8683,2.8713,2.8696,2.8728,2.8739,2.8712,2.8728,2.8726,2.8718,2.8727,2.8718,2.8728,2.8703,2.8704,2.8718,2.8709,2.8736,2.8705,2.8716,2.8717,2.8716,2.879,2.8805,2.8854,2.8766,2.8767,2.8768,0,2.8747,2.8751,2.8784,2.8777,2.8781,2.8795,2.8798,2.8807,2.8805,2.8798,2.8801,2.8783,2.8801,2.8772,2.8796,2.8775,2.8779,2.8776,2.8777,2.8776,2.8744,2.879,2.887,2.8877,2.8778,2.8777,2.8776,0,2.8801,2.8815,2.8836,2.8837,2.8829,2.884,2.8838,2.8834,2.8838,2.8842,2.8845,2.885,2.8853,2.8858,2.8842,2.8823,2.8868,2.8838,2.8862,2.8862,2.8871,2.887,2.8951,2.8876,2.8876,2.8876,2.8876,0,2.886,2.8881,2.886,2.8873,2.8897,2.8878,2.8901,2.8896,2.8894,2.8905,2.8883,2.8894,2.8874,2.8884,2.8872,2.8893,2.8895,2.8889,2.8886,2.889,2.8891,2.8891,2.8887,2.8878,2.8878,2.8877,2.8877,0,2.8923,2.891,2.8932,2.8924,2.8922,2.894,2.8933,2.8945,2.8936,2.8951,2.8954,2.894,2.895,2.8936,2.8945,2.8937,2.8965,2.8957,2.8966,2.8963,2.8987,2.8985,2.907,2.908,2.9,2.9001,2.9002,0,2.896,2.8976,2.897,2.8976,2.8975,2.8986,2.899,2.8974,2.8979,2.8979,2.8991,2.9,2.9005,2.9023,2.9014,2.9021,2.9012,2.9041,2.9012,2.9017,2.9011,2.9009,2.9011,2.9046,2.9047,2.9048,2.9049,0,2.9027,2.9021,2.9028,2.9034,2.9041,2.9044,2.9047,2.9053,2.9036,2.9043,2.9054,2.9058,2.9068,2.9076,2.9081,2.9078,2.9061,2.9059,2.9064,2.9068,2.9072,2.9069,2.898,2.9056,2.9055,2.9055,2.9054,2.9054,2.9077,2.909,2.9088,2.9098,2.9098,2.9101,2.9112,2.9105,2.9114,2.912,2.911,2.9124,2.9122,2.9127,2.9126,2.9136,2.9123,2.9132,2.9134,2.9136,2.9139,2.9072,2.9137,2.9137,2.9137,2.9137,2.9137,0,2.9142,2.914,2.915,2.9154,2.9162,2.9146,2.9148,2.9155,2.9167,2.9168,2.9174,2.9187,2.9195,2.9188,2.9195,2.9204,2.9197,2.9207,2.9205,2.9205,2.9151,2.9144,2.9213,2.9213,2.9213,2.9213,2.9213,2.9213,2.9177,2.9198,2.9191,2.9212,2.921,2.9223,2.9226,2.9228,2.9229,2.9244,2.9251,2.9247,2.9244,2.9251,2.9259,2.9256,2.9259,2.9272,2.9267,2.9216,2.9208,2.9201,2.9195,2.9273,2.9274,2.932,2.932,2.9321]}]]